EZS735X LFSB-LIML

Flight info

Callsign EZS735X
Flight time 0h 45m
Altitude 23000
Route ELBEG Y715 AMRUP N491 TRA N850 ODINA
Aircraft A20N/M-SDE2E3FGHIRWXY/LB1

Departure

Time 2026-04-29 18:22
Airport EuroAirport Basel–Mulhouse–Freiburg (LFSB)

Arrival

Time 2026-04-29 19:07
Airport Milano Linate Airport (LIML)
Time Latitude Longitude Altitude Speed Heading
2026-04-29 18:05 47.59834 7.52812 888 ft 0 kts 69°
2026-04-29 18:13 47.59829 7.52791 888 ft 3 kts 68°
2026-04-29 18:13 47.59821 7.52764 888 ft 3 kts 51°
2026-04-29 18:13 47.59806 7.52746 889 ft 3 kts
2026-04-29 18:13 47.59787 7.52748 890 ft 3 kts 331°
2026-04-29 18:14 47.59772 7.52760 890 ft 0 kts 334°
2026-04-29 18:15 47.59772 7.52759 890 ft 1 kts 334°
2026-04-29 18:16 47.59803 7.52739 889 ft 9 kts 338°
2026-04-29 18:16 47.59882 7.52689 887 ft 15 kts 335°
2026-04-29 18:16 47.59985 7.52617 888 ft 16 kts 334°
2026-04-29 18:16 47.60009 7.52526 889 ft 9 kts 278°
2026-04-29 18:17 47.60063 7.52468 888 ft 12 kts 336°
2026-04-29 18:17 47.60149 7.52409 889 ft 15 kts 335°
2026-04-29 18:17 47.60255 7.52336 887 ft 19 kts 335°
2026-04-29 18:17 47.60388 7.52244 886 ft 23 kts 334°
2026-04-29 18:18 47.60547 7.52132 880 ft 28 kts 334°
2026-04-29 18:18 47.60729 7.52005 877 ft 31 kts 335°
2026-04-29 18:18 47.60922 7.51871 880 ft 30 kts 334°
2026-04-29 18:18 47.61114 7.51737 880 ft 31 kts 335°
2026-04-29 18:19 47.61305 7.51605 876 ft 31 kts 335°
2026-04-29 18:19 47.61510 7.51463 874 ft 33 kts 335°
2026-04-29 18:19 47.61708 7.51327 877 ft 26 kts 335°
2026-04-29 18:19 47.61809 7.51202 878 ft 18 kts 286°
2026-04-29 18:20 47.61803 7.51120 877 ft 0 kts 248°
2026-04-29 18:20 47.61802 7.51115 877 ft 2 kts 248°
2026-04-29 18:20 47.61786 7.51065 876 ft 8 kts 244°
2026-04-29 18:21 47.61726 7.51021 875 ft 12 kts 169°
2026-04-29 18:21 47.61640 7.51079 876 ft 25 kts 155°
2026-04-29 18:21 47.61256 7.51347 872 ft 94 kts 154°
2026-04-29 18:21 47.60501 7.51868 889 ft 142 kts 152°
2026-04-29 18:22 47.59604 7.52448 1429 ft 140 kts 153°
2026-04-29 18:22 47.58677 7.53005 1960 ft 148 kts 153°
2026-04-29 18:22 47.57701 7.53560 2505 ft 152 kts 152°
2026-04-29 18:22 47.56710 7.54242 2931 ft 164 kts 146°
2026-04-29 18:23 47.55653 7.55074 3335 ft 180 kts 146°
2026-04-29 18:23 47.54475 7.55975 3821 ft 200 kts 148°
2026-04-29 18:23 47.53148 7.56921 4346 ft 224 kts 154°
2026-04-29 18:23 47.51538 7.57240 4918 ft 251 kts 183°
2026-04-29 18:24 47.49852 7.56286 5567 ft 270 kts 213°
2026-04-29 18:24 47.48589 7.54195 6207 ft 279 kts 242°
2026-04-29 18:24 47.48086 7.51428 6833 ft 282 kts 270°
2026-04-29 18:24 47.48498 7.48622 7665 ft 281 kts 300°
2026-04-29 18:25 47.49719 7.46448 8749 ft 274 kts 327°
2026-04-29 18:25 47.51452 7.45315 9628 ft 278 kts 353°
2026-04-29 18:25 47.53383 7.45434 10407 ft 281 kts 15°
2026-04-29 18:25 47.55246 7.46360 11197 ft 290 kts 30°
2026-04-29 18:26 47.56804 7.48330 11573 ft 312 kts 50°
2026-04-29 18:26 47.58181 7.51027 12013 ft 332 kts 54°
2026-04-29 18:26 47.59495 7.53864 12863 ft 337 kts 55°
2026-04-29 18:26 47.60814 7.56714 13692 ft 343 kts 54°
2026-04-29 18:27 47.62194 7.59625 14477 ft 347 kts 53°
2026-04-29 18:27 47.63603 7.62541 15310 ft 349 kts 53°
2026-04-29 18:27 47.65032 7.65473 16111 ft 353 kts 53°
2026-04-29 18:27 47.66483 7.68438 16893 ft 357 kts 53°
2026-04-29 18:28 47.67948 7.71433 17657 ft 361 kts 53°
2026-04-29 18:28 47.69332 7.74558 18460 ft 365 kts 59°
2026-04-29 18:28 47.70444 7.77977 19106 ft 370 kts 66°
2026-04-29 18:28 47.71344 7.81580 19773 ft 374 kts 68°
2026-04-29 18:29 47.72254 7.85208 20468 ft 377 kts 67°
2026-04-29 18:29 47.72878 7.87678 20922 ft 379 kts 67°
2026-04-29 18:29 47.74111 7.92565 21796 ft 384 kts 67°
2026-04-29 18:29 47.75047 7.96284 22456 ft 387 kts 67°
2026-04-29 18:30 47.75993 8.00053 22990 ft 392 kts 67°
2026-04-29 18:30 47.76885 8.03906 23134 ft 396 kts 73°
2026-04-29 18:30 47.77208 8.07973 23145 ft 400 kts 88°
2026-04-29 18:30 47.76805 8.12076 23161 ft 405 kts 103°
2026-04-29 18:31 47.75846 8.16064 23157 ft 418 kts 108°
2026-04-29 18:31 47.74811 8.20201 23165 ft 436 kts 108°
2026-04-29 18:31 47.73453 8.24340 23161 ft 457 kts 120°
2026-04-29 18:31 47.71454 8.28125 23165 ft 476 kts 132°
2026-04-29 18:32 47.69034 8.31179 23168 ft 491 kts 144°
2026-04-29 18:32 47.62742 8.35231 23163 ft 498 kts 168°
2026-04-29 18:32 47.59312 8.35825 23162 ft 498 kts 178°
2026-04-29 18:33 47.55851 8.35969 23161 ft 495 kts 178°
2026-04-29 18:33 47.52616 8.36241 23156 ft 491 kts 175°
2026-04-29 18:33 47.49222 8.36781 23159 ft 492 kts 173°
2026-04-29 18:33 47.45833 8.37516 23150 ft 492 kts 171°
2026-04-29 18:34 47.42464 8.38353 23163 ft 492 kts 171°
2026-04-29 18:34 47.41319 8.38649 23157 ft 492 kts 171°
2026-04-29 18:34 47.35722 8.40123 23153 ft 492 kts 171°
2026-04-29 18:34 47.32350 8.41011 23149 ft 491 kts 171°
2026-04-29 18:35 47.28985 8.41893 23157 ft 492 kts 171°
2026-04-29 18:35 47.25609 8.42773 23135 ft 492 kts 171°
2026-04-29 18:35 47.22242 8.43649 23130 ft 493 kts 171°
2026-04-29 18:35 47.18865 8.44525 23129 ft 493 kts 172°
2026-04-29 18:36 47.15485 8.45400 23124 ft 493 kts 172°
2026-04-29 18:36 47.12108 8.46274 23135 ft 494 kts 172°
2026-04-29 18:36 47.08723 8.47148 23130 ft 493 kts 172°
2026-04-29 18:36 47.05337 8.47934 23166 ft 493 kts 175°
2026-04-29 18:37 47.01934 8.48622 23160 ft 493 kts 174°
2026-04-29 18:37 46.99688 8.49103 23163 ft 493 kts 174°
2026-04-29 18:37 46.95148 8.50065 23159 ft 493 kts 174°
2026-04-29 18:37 46.92894 8.50528 23159 ft 493 kts 175°
2026-04-29 18:38 46.89494 8.51212 23157 ft 494 kts 175°
2026-04-29 18:38 46.86086 8.51886 23156 ft 494 kts 175°
2026-04-29 18:38 46.82690 8.52552 23118 ft 490 kts 175°
2026-04-29 18:38 46.79346 8.53209 22982 ft 479 kts 175°
2026-04-29 18:39 46.76097 8.53850 22811 ft 463 kts 175°
2026-04-29 18:39 46.72957 8.54466 22616 ft 447 kts 175°
2026-04-29 18:39 46.69931 8.55057 22430 ft 431 kts 176°
2026-04-29 18:39 46.67018 8.55623 22241 ft 415 kts 176°
2026-04-29 18:40 46.64210 8.56167 22087 ft 400 kts 176°
2026-04-29 18:40 46.61501 8.56692 21929 ft 386 kts 176°
2026-04-29 18:40 46.58883 8.57200 21803 ft 373 kts 176°
2026-04-29 18:40 46.56352 8.57690 21677 ft 361 kts 176°
2026-04-29 18:41 46.49254 8.59058 21337 ft 325 kts 176°
2026-04-29 18:41 46.47051 8.59486 21234 ft 313 kts 176°
2026-04-29 18:42 46.44953 8.59890 21085 ft 304 kts 176°
2026-04-29 18:42 46.42866 8.60288 20812 ft 300 kts 176°
2026-04-29 18:42 46.40798 8.60681 20551 ft 300 kts 176°
2026-04-29 18:42 46.38702 8.61077 20313 ft 317 kts 176°
2026-04-29 18:43 46.36400 8.61506 20074 ft 349 kts 175°
2026-04-29 18:43 46.33958 8.61968 19838 ft 356 kts 175°
2026-04-29 18:43 46.31506 8.62442 19591 ft 353 kts 175°
2026-04-29 18:43 46.29092 8.62912 19340 ft 348 kts 175°
2026-04-29 18:44 46.26690 8.63376 19096 ft 349 kts 175°
2026-04-29 18:44 46.24286 8.63839 18858 ft 348 kts 175°
2026-04-29 18:44 46.21910 8.64295 18632 ft 348 kts 175°
2026-04-29 18:44 46.19516 8.64752 18381 ft 346 kts 175°
2026-04-29 18:45 46.17136 8.65205 18126 ft 343 kts 175°
2026-04-29 18:45 46.14789 8.65653 17871 ft 340 kts 175°
2026-04-29 18:45 46.12457 8.66107 17595 ft 340 kts 173°
2026-04-29 18:45 46.10162 8.66947 17325 ft 342 kts 162°
2026-04-29 18:46 46.07991 8.68362 17070 ft 342 kts 152°
2026-04-29 18:46 46.05924 8.70013 16808 ft 338 kts 152°
2026-04-29 18:46 46.03873 8.71633 16552 ft 336 kts 152°
2026-04-29 18:46 46.01827 8.73239 16298 ft 335 kts 152°
2026-04-29 18:47 45.99783 8.74837 16049 ft 333 kts 152°
2026-04-29 18:47 45.97760 8.76418 15797 ft 331 kts 152°
2026-04-29 18:47 45.95737 8.77997 15546 ft 329 kts 152°
2026-04-29 18:47 45.93729 8.79561 15302 ft 328 kts 152°
2026-04-29 18:48 45.91736 8.81115 15117 ft 325 kts 152°
2026-04-29 18:48 45.89751 8.82662 15084 ft 324 kts 152°
2026-04-29 18:48 45.87756 8.84216 15079 ft 327 kts 152°
2026-04-29 18:48 45.85764 8.85765 15078 ft 326 kts 152°
2026-04-29 18:49 45.83770 8.87315 15065 ft 326 kts 152°
2026-04-29 18:49 45.81776 8.88863 15073 ft 326 kts 152°
2026-04-29 18:49 45.79781 8.90411 15059 ft 326 kts 152°
2026-04-29 18:49 45.77788 8.91957 15082 ft 326 kts 152°
2026-04-29 18:50 45.75797 8.93499 14945 ft 324 kts 152°
2026-04-29 18:50 45.73822 8.95027 14630 ft 322 kts 152°
2026-04-29 18:50 45.71853 8.96549 14265 ft 321 kts 152°
2026-04-29 18:50 45.69907 8.98053 14030 ft 316 kts 152°
2026-04-29 18:51 45.67960 8.99556 13821 ft 319 kts 152°
2026-04-29 18:51 45.66011 9.01060 13594 ft 317 kts 152°
2026-04-29 18:51 45.64079 9.02550 13384 ft 315 kts 152°
2026-04-29 18:51 45.62153 9.04032 13178 ft 314 kts 152°
2026-04-29 18:52 45.60232 9.05507 12983 ft 313 kts 152°
2026-04-29 18:52 45.58322 9.06972 12766 ft 311 kts 152°
2026-04-29 18:52 45.56416 9.08433 12568 ft 310 kts 152°
2026-04-29 18:52 45.54584 9.09838 12426 ft 305 kts 152°
2026-04-29 18:53 45.52690 9.11288 12337 ft 294 kts 152°
2026-04-29 18:53 45.50861 9.12431 12195 ft 283 kts 164°
2026-04-29 18:53 45.48930 9.12950 11993 ft 284 kts 177°
2026-04-29 18:53 45.46988 9.13176 11789 ft 284 kts 176°
2026-04-29 18:54 45.45006 9.13417 11534 ft 280 kts 176°
2026-04-29 18:54 45.43071 9.13644 11294 ft 278 kts 176°
2026-04-29 18:54 45.41169 9.13861 11074 ft 278 kts 176°
2026-04-29 18:54 45.39235 9.14077 10856 ft 279 kts 176°
2026-04-29 18:55 45.37309 9.14289 10635 ft 276 kts 176°
2026-04-29 18:55 45.35401 9.14500 10423 ft 275 kts 177°
2026-04-29 18:55 45.33501 9.14710 10202 ft 273 kts 177°
2026-04-29 18:55 45.31607 9.14919 9985 ft 273 kts 177°
2026-04-29 18:56 45.29718 9.15127 9749 ft 271 kts 177°
2026-04-29 18:56 45.27845 9.15332 9512 ft 270 kts 177°
2026-04-29 18:56 45.25972 9.15537 9265 ft 270 kts 177°
2026-04-29 18:56 45.24118 9.15741 9036 ft 264 kts 176°
2026-04-29 18:57 45.22304 9.15941 8802 ft 258 kts 176°
2026-04-29 18:57 45.20541 9.16136 8562 ft 250 kts 176°
2026-04-29 18:57 45.18832 9.16323 8337 ft 242 kts 176°
2026-04-29 18:57 45.17177 9.16504 8101 ft 238 kts 176°
2026-04-29 18:58 45.15510 9.16687 7881 ft 240 kts 176°
2026-04-29 18:58 45.13854 9.16868 7645 ft 237 kts 176°
2026-04-29 18:58 45.12212 9.17047 7392 ft 237 kts 176°
2026-04-29 18:58 45.10575 9.17226 7148 ft 235 kts 176°
2026-04-29 18:59 45.08955 9.17439 6901 ft 234 kts 168°
2026-04-29 18:59 45.07527 9.18467 6662 ft 233 kts 135°
2026-04-29 18:59 45.06702 9.20388 6425 ft 232 kts 104°
2026-04-29 18:59 45.06724 9.22637 6166 ft 229 kts 71°
2026-04-29 19:00 45.07580 9.24466 5913 ft 223 kts 38°
2026-04-29 19:00 45.08932 9.25485 5656 ft 219 kts 24°
2026-04-29 19:00 45.10333 9.26307 5406 ft 219 kts 22°
2026-04-29 19:00 45.11741 9.27114 5160 ft 217 kts 23°
2026-04-29 19:01 45.13137 9.27908 4907 ft 215 kts 24°
2026-04-29 19:01 45.14534 9.28686 4704 ft 216 kts 23°
2026-04-29 19:01 45.15935 9.29454 4548 ft 216 kts 23°
2026-04-29 19:01 45.17343 9.30122 4424 ft 217 kts 15°
2026-04-29 19:02 45.18871 9.30369 4297 ft 221 kts
2026-04-29 19:02 45.19893 9.30339 4215 ft 222 kts
2026-04-29 19:02 45.21940 9.30128 4048 ft 222 kts 358°
2026-04-29 19:02 45.23449 9.29966 3963 ft 210 kts 359°
2026-04-29 19:03 45.24848 9.29814 3857 ft 194 kts 360°
2026-04-29 19:03 45.26195 9.29674 3716 ft 198 kts
2026-04-29 19:03 45.27583 9.29526 3455 ft 199 kts 359°
2026-04-29 19:03 45.28944 9.29379 3195 ft 195 kts
2026-04-29 19:04 45.30297 9.29235 2933 ft 197 kts
2026-04-29 19:04 45.31652 9.29087 2669 ft 189 kts
2026-04-29 19:04 45.32918 9.28949 2425 ft 175 kts
2026-04-29 19:04 45.34074 9.28824 2208 ft 158 kts
2026-04-29 19:05 45.35137 9.28713 2006 ft 153 kts
2026-04-29 19:05 45.36197 9.28602 1798 ft 152 kts
2026-04-29 19:05 45.37240 9.28487 1603 ft 148 kts
2026-04-29 19:05 45.38268 9.28376 1426 ft 147 kts
2026-04-29 19:06 45.39277 9.28275 1185 ft 147 kts
2026-04-29 19:06 45.40281 9.28162 954 ft 146 kts
2026-04-29 19:06 45.42284 9.27949 645 ft 141 kts
2026-04-29 19:07 45.43290 9.27837 467 ft 146 kts
2026-04-29 19:07 45.43966 9.27769 377 ft 146 kts 360°
2026-04-29 19:07 45.45067 9.27654 360 ft 85 kts 356°
2026-04-29 19:07 45.45350 9.27627 362 ft 9 kts
2026-04-29 19:08 45.45396 9.27673 360 ft 6 kts 91°
2026-04-29 19:08 45.45411 9.27727 364 ft 6 kts 38°
2026-04-29 19:08 45.45450 9.27768 360 ft 8 kts 37°
2026-04-29 19:08 45.45505 9.27817 364 ft 10 kts 18°
2026-04-29 19:09 45.45584 9.27815 361 ft 13 kts
2026-04-29 19:09 45.45685 9.27817 361 ft 16 kts
2026-04-29 19:09 45.45808 9.27819 366 ft 18 kts
2026-04-29 19:09 45.45832 9.27820 363 ft 3 kts
2026-04-29 19:10 45.45861 9.27832 360 ft 4 kts 58°
2026-04-29 19:10 45.45859 9.27871 360 ft 5 kts 94°
2026-04-29 19:10 45.45858 9.27897 360 ft 0 kts 90°